This is the latest recevied weather packets stored in our database for station/object W2OBX. If no packets are shown the sender has not sent any weather packets the latest 10 day(s).
| Time | Temp. | Humidity | Pressure | Rain* | Wind** | Luminosity | Snow |
|---|---|---|---|---|---|---|---|
| 1778082731 | 17.78° C | 97% | 1013.5 hPa | 0 mm | - | 37 W/m² | - |
| 1778081598 | 17.78° C | 97% | 1014.1 hPa | 0 mm | - | 32 W/m² | - |
| 1778081295 | 17.78° C | 97% | 1014.3 hPa | 0 mm | - | 38 W/m² | - |
| 1778080992 | 17.78° C | 97% | 1014.2 hPa | 0 mm | - | 28 W/m² | - |
| 1778080691 | 17.78° C | 97% | 1014.4 hPa | 0 mm | - | 36 W/m² | - |
| 1778080387 | 17.78° C | 97% | 1014.3 hPa | 0 mm | - | 26 W/m² | - |
| 1778080084 | 17.78° C | 97% | 1014.3 hPa | 0 mm | - | 26 W/m² | - |
| 1778079781 | 17.78° C | 97% | 1014.1 hPa | 0 mm | - | 18 W/m² | - |
| 1778079478 | 18.33° C | 97% | 1014.1 hPa | 0 mm | - | 17 W/m² | - |
| 1778079174 | 18.33° C | 97% | 1013.9 hPa | 0 mm | - | 17 W/m² | - |
| 1778078872 | 18.33° C | 97% | 1013.7 hPa | 0 mm | - | 22 W/m² | - |
| 1778078568 | 18.33° C | 97% | 1014 hPa | 0 mm | - | 16 W/m² | - |
| 1778078266 | 18.33° C | 97% | 1013.9 hPa | 0 mm | - | 18 W/m² | - |
| 1778077963 | 18.33° C | 97% | 1013.8 hPa | 0 mm | - | 7 W/m² | - |
| 1778077662 | 18.33° C | 97% | 1013.5 hPa | 0 mm | - | 16 W/m² | - |
| 1778077359 | 18.33° C | 97% | 1013.2 hPa | 0 mm | - | 10 W/m² | - |
| 1778077057 | 18.33° C | 97% | 1012.9 hPa | 0 mm | - | 23 W/m² | - |
| 1778076755 | 18.33° C | 97% | 1012.6 hPa | 0 mm | - | 19 W/m² | - |
| 1778076453 | 18.33° C | 97% | 1012.3 hPa | 0 mm | - | 33 W/m² | - |
| 1778076149 | 18.33° C | 97% | 1012.4 hPa | 0 mm | - | 33 W/m² | - |
| 1778075846 | 18.33° C | 97% | 1012.2 hPa | 0 mm | - | 29 W/m² | - |
| 1778075542 | 18.33° C | 97% | 1011.9 hPa | 0 mm | - | 34 W/m² | - |
| 1778075240 | 18.33° C | 97% | 1012.4 hPa | 0 mm | - | 24 W/m² | - |
| 1778074936 | 18.33° C | 96% | 1012.7 hPa | 0 mm | - | 15 W/m² | - |
| 1778074633 | 18.33° C | 96% | 1013 hPa | 0 mm | - | 17 W/m² | - |
* Rain latest hour (hover to see other rain measurements)
** Current wind speed in m/s (hover to see current wind gust speed)